Regional Weather Roundup
Issued by NWS Newport/Morehead, NC

Current Version | Previous Version | Graphics & Text | Print | Product List | Glossary On
Versions: 1 2 3 4 5 6 7 8 9 10 11 12 13 14 15 16 17 18 19 20 21 22 23 24 25 26 27 28 29 30 31 32 33 34 35 36 37 38 39 40 41 42 43 44 45 46 47 48 49 50
000 ASUS42 KMHX 220825 RWRMHX WEATHER ROUNDUP FOR EASTERN NORTH CAROLINA NATIONAL WEATHER SERVICE NEWPORT/MOREHEAD CITY NC 300 AM EST WED FEB 22 2017 NOTE: "FAIR" INDICATES FEW OR NO CLOUDS BELOW 12,000 FEET WITH NO SIGNIFICANT WEATHER AND/OR OBSTRUCTIONS TO VISIBILITY NCZ015>017-031-032-045>047-102-103-220900- NORTH COAST CITY SKY/WX TMP DP RH WIND PRES REMARKS EDENTON PTCLDY 46 44 92 CALM 30.08F ELIZABETH CITY PTCLDY 46 45 96 SE3 30.07F FOG KITTY HAWK NOT AVBL MANTEO CLEAR 53 48 84 S6 30.07F $$ NCZ045>047-081-094-103-104-220900- CENTRAL COAST CITY SKY/WX TMP DP RH WIND PRES REMARKS FRISCO PTCLDY 55 48 77 E6 30.07F $$ NCZ095-097-098-100-101-220900- SOUTHERN COAST CITY SKY/WX TMP DP RH WIND PRES REMARKS BEAUFORT PTCLDY 48 47 96 CALM 30.06F CEDAR ISLAND NOT AVBL JACKSONVILLE CLOUDY 50 50 100 CALM 30.05F FOG PINEY ISLAND NOT AVBL WILMINGTON PTCLDY 50 49 96 NE3 30.04F $$ NCZ011>013-027>030-043-044-078>080-089-090>093-098-220900- COASTAL PLAIN CITY SKY/WX TMP DP RH WIND PRES REMARKS AHOSKIE N/A 43 42 96 CALM 30.06F CLINTON PTCLDY 50 49 98 CALM 30.05F ELIZABETHTOWN PTCLDY 52 51 97 CALM 30.04S GOLDSBORO PTCLDY 47 47 100 E6 30.03F GREENVILLE CLOUDY 46 46 100 CALM 30.07F HAVELOCK MOCLDY 48 46 93 CALM 30.06F FOG KENANSVILLE NOT AVBL KINSTON PTCLDY 49 48 97 CALM 30.07S NEW BERN FOG 46 46 100 CALM 30.06F VSB 1/4 RICHLANDS CLOUDY 46 46 100 CALM 30.05F FOG ROCKY MOUNT CLOUDY 48 46 93 CALM 30.06F WASHINGTON CLOUDY 45 44 97 CALM 30.07F WHITEVILLE PTCLDY 54 52 92 CALM 30.02F $$ AMZ130-135-150-152-154-156-158-170-250-252-270-ANZ085-086-088-633-658-670-220900- MARINE OBSERVATIONS STATION/POSITION TIME TEMP WIND PRES WAVE SWELL AIR SEA DIR/SP/G HT/PER HT/PER (UTC) (F) (DEG/KT/KT) (MB) (FT/S) (FT/S) CHESAPEAKE LIGHT NOT AVBL 64 E VA BEACH 0750 55 53 120/ 4/ 4 1018.4 4/ 9 3/ 9 DUCK 0800 49 48 150/ 8/ 9 1017.6 2 E DUCK 0800 48 N/A 3/ 8 OREGON INLET 0800 51 51 130/ 5/ 6 1018.4 13E OREGON INLT NOT AVBL HATTERAS CG 0800 61 58 110/ 4/ 5 1017.9 DIAMOND BUOY 0750 63 74 130/ 6/ 8 1018.6 3/ 8 3/ 8 CAPE LOOKOUT 0800 62 80/ 7/ 7 1017.4 BEAUFORT LAB 0800 53 53 CALM / 1 1016.7 30 SE NEW RVR IN 0808 66 120/ 8/ 12 1017.3 30 SE NEW RVR IN 0813 69 N/A 3/ 6 27 SE WRIGHTSVLE 0808 66 65 120/ 10/ 16 1016.2 5 SE WRIGHTSVLE 0808 58 56 90/ 6/ 8 1016.7 225 S CAPE HAT 0750 64 71 100/ 16/ 19 1016.8 5/ 8 3/ 8 41 SE CHARLESTON 0750 69 69 120/ 17/ 19 1014.2 4/ 5 2/ 8 $$

USA.gov is the U.S. government's official web portal to all federal, state and local government web resources and services.